TimePDT,TemperatureF,Dew PointF,Humidity,Sea Level PressureIn,VisibilityMPH,Wind Direction,Wind SpeedMPH,Gust SpeedMPH,PrecipitationIn,Events,Conditions,WindDirDegrees,DateUTC
12:53 AM,78.1,51.1,39,29.83,10.0,Calm,Calm,-,N/A,,Clear,0,2013-08-22 07:53:00
1:53 AM,75.9,51.1,42,29.83,10.0,South,4.6,-,N/A,,Clear,190,2013-08-22 08:53:00
2:53 AM,75.0,51.1,43,29.83,10.0,South,4.6,-,N/A,,Clear,190,2013-08-22 09:53:00
3:53 AM,71.1,50.0,47,29.84,10.0,Calm,Calm,-,N/A,,Clear,0,2013-08-22 10:53:00
4:53 AM,69.1,51.1,53,29.85,10.0,Calm,Calm,-,N/A,,Clear,0,2013-08-22 11:53:00
5:53 AM,66.9,51.1,57,29.86,10.0,ESE,3.5,-,N/A,,Clear,120,2013-08-22 12:53:00
6:53 AM,66.9,52.0,59,29.87,10.0,Calm,Calm,-,N/A,,Clear,0,2013-08-22 13:53:00
7:53 AM,68.0,52.0,56,29.88,10.0,Calm,Calm,-,N/A,,Clear,0,2013-08-22 14:53:00
8:18 AM,66.2,53.6,64,29.94,6.0,SSE,11.5,-,0.01,Rain-Thunderstorm,Light Thunderstorms and Rain,150,2013-08-22 15:18:00
8:33 AM,66.2,55.4,68,29.95,9.0,South,6.9,-,0.01,Rain,Light Rain,170,2013-08-22 15:33:00
8:53 AM,66.0,55.9,70,29.93,6.0,South,4.6,-,0.02,Rain,Light Rain,190,2013-08-22 15:53:00
9:02 AM,66.2,57.2,73,29.96,7.0,SW,8.1,-,0.01,Rain-Thunderstorm,Light Rain,230,2013-08-22 16:02:00
9:16 AM,64.4,57.2,77,29.97,7.0,Calm,Calm,-,0.01,Rain-Thunderstorm,Light Rain,0,2013-08-22 16:16:00
9:38 AM,64.4,57.2,77,29.92,4.0,NNW,13.8,-,0.04,Rain,Rain,330,2013-08-22 16:38:00
9:53 AM,64.9,57.0,75,29.93,9.0,East,13.8,29.9,0.05,Rain,Light Rain,90,2013-08-22 16:53:00
10:53 AM,69.1,57.0,65,29.93,6.0,West,11.5,-,0.00,,Haze,260,2013-08-22 17:53:00
11:53 AM,73.0,55.9,55,29.94,10.0,East,5.8,-,N/A,,Mostly Cloudy,100,2013-08-22 18:53:00
12:53 PM,75.0,57.0,53,29.91,10.0,Variable,4.6,-,0.00,,Scattered Clouds,0,2013-08-22 19:53:00
1:53 PM,82.0,54.0,38,29.89,9.0,WNW,9.2,19.6,N/A,,Scattered Clouds,300,2013-08-22 20:53:00
2:53 PM,82.0,51.1,34,29.90,10.0,West,9.2,-,N/A,,Scattered Clouds,270,2013-08-22 21:53:00
3:53 PM,73.9,51.1,45,29.91,10.0,SSW,13.8,20.7,0.00,,Mostly Cloudy,210,2013-08-22 22:53:00
4:53 PM,73.0,48.9,42,29.89,10.0,Calm,Calm,-,0.00,,Scattered Clouds,0,2013-08-22 23:53:00
5:53 PM,73.0,51.1,46,29.90,10.0,West,6.9,-,N/A,,Mostly Cloudy,270,2013-08-23 00:53:00
6:53 PM,73.0,53.1,49,29.89,10.0,WNW,6.9,-,N/A,,Mostly Cloudy,300,2013-08-23 01:53:00
7:53 PM,70.0,55.9,61,29.91,10.0,North,4.6,-,N/A,,Scattered Clouds,360,2013-08-23 02:53:00
8:53 PM,68.0,55.9,65,29.93,10.0,Calm,Calm,-,N/A,,Partly Cloudy,0,2013-08-23 03:53:00
9:53 PM,66.0,55.9,70,29.95,10.0,Calm,Calm,-,N/A,,Clear,0,2013-08-23 04:53:00
10:53 PM,64.9,53.1,65,29.94,10.0,Calm,Calm,-,N/A,,Clear,0,2013-08-23 05:53:00
11:53 PM,64.0,52.0,65,29.94,10.0,West,3.5,-,N/A,,Clear,280,2013-08-23 06:53:00